Glendive, MT

9:52 AM MDT on April 23, 2018 (GMT -0600)
Dawson Community

Weather History for KGDV - January, 2013

Change the Weather History Date:

Sunday, January 27, 2013

  Actual Average Record
Temperature  
Mean Temperature 29 °F 20 °F  
Max Temperature 35 °F 30 °F 54 °F (2015)
Min Temperature 23 °F 10 °F -25 °F (1997)
Degree Days  
Heating Degree Days 36 45  
Month to date heating degree days 1253  
Year to date heating degree days 1253  
Since 1 July heating degree days 4241  
Cooling Degree Days 0 0  
Month to date cooling degree days 0  
Year to date cooling degree days 0  
Since 1 July cooling degree days 0  
Moisture  
Dew Point 26 °F    
Average Humidity 88    
Maximum Humidity 100    
Minimum Humidity 75    
Precipitation  
Precipitation 0.00 in 0.01 in 0.00 in (2018)
Month to date precipitation 0.32  
Year to date precipitation 0.32  
Sea Level Pressure  
Sea Level Pressure 29.73 in    
Wind  
Wind Speed 7 mph (NW)    
Max Wind Speed 17 mph    
Max Gust Speed 22 mph    
Visibility 8 miles    
Events      
T = Trace of Precipitation, MM = Missing Value Source: NWS Daily Summary

Daily Weather History Graph

Daily Weather History Graph

Search for Another Location

Airport or City:

Astronomy

Jan. 27, 2013 Rise Set
Actual Time 7:30 AM MST 4:54 PM MST
Civil Twilight 6:57 AM MST 5:27 PM MST
Nautical Twilight 6:20 AM MST 6:04 PM MST
Astronomical Twilight 5:44 AM MST 6:40 PM MST
Moon 5:58 PM MST (1/27) 7:18 AM MST (1/27)
Length of Visible Light 10h 30m
Length of Day
9h 24m
Full, 100% of the Moon is Illuminated
Jan 27
Full
Feb 3
Last Quarter
Feb 10
New
Feb 17
First Quarter
Feb 25
Full

Hourly Weather History & Observations

Time (MST) Temp. Windchill Dew Point Humidity Pressure Visibility Wind Dir Wind Speed Gust Speed Precip Events Conditions
12:15 AM 26.6 °F 22.6 °F 21.2 °F 80% 29.72 in 8.0 mi NNE 3.5 mph - N/A   Clear
12:35 AM 24.8 °F 19.1 °F 23.0 °F 93% 29.71 in 10.0 mi NNE 4.6 mph - N/A   Clear
12:55 AM 24.8 °F 17.9 °F 21.2 °F 86% 29.70 in 10.0 mi NNE 5.8 mph - N/A   Clear
1:15 AM 24.8 °F 19.1 °F 23.0 °F 93% 29.69 in 10.0 mi NNE 4.6 mph - N/A   Clear
1:35 AM 26.6 °F 22.6 °F 21.2 °F 80% 29.69 in 10.0 mi NNE 3.5 mph - N/A   Clear
1:55 AM 26.6 °F 21.2 °F 24.8 °F 93% 29.68 in 10.0 mi NE 4.6 mph - N/A   Clear
2:15 AM 24.8 °F - 21.2 °F 86% 29.68 in 10.0 mi Calm Calm - N/A   Clear
2:35 AM 24.8 °F - 21.2 °F 86% 29.67 in 10.0 mi Calm Calm - N/A   Clear
2:55 AM 23.0 °F 15.8 °F 21.2 °F 93% 29.67 in 10.0 mi WNW 5.8 mph - N/A   Clear
3:15 AM 24.8 °F 14.0 °F 21.2 °F 86% 29.68 in 10.0 mi NW 11.5 mph - N/A   Clear
3:35 AM 26.6 °F 19.1 °F 24.8 °F 93% 29.67 in 10.0 mi WNW 6.9 mph - N/A   Clear
3:55 AM 28.4 °F 21.2 °F 24.8 °F 86% 29.68 in 10.0 mi NNW 6.9 mph - N/A   Clear
4:15 AM 26.6 °F 20.0 °F 24.8 °F 93% 29.68 in 10.0 mi NNW 5.8 mph - N/A   Clear
4:35 AM 26.6 °F 19.1 °F 24.8 °F 93% 29.68 in 10.0 mi NNE 6.9 mph - N/A   Clear
4:55 AM 24.8 °F 19.1 °F 23.0 °F 93% 29.68 in 10.0 mi NNE 4.6 mph - N/A   Clear
5:15 AM 24.8 °F 17.9 °F 21.2 °F 86% 29.68 in 10.0 mi NNE 5.8 mph - N/A   Clear
5:35 AM 23.0 °F 17.0 °F 21.2 °F 93% 29.68 in 10.0 mi NNE 4.6 mph - N/A   Mostly Cloudy
5:55 AM 23.0 °F 15.8 °F 21.2 °F 93% 29.68 in 10.0 mi NNE 5.8 mph - N/A   Overcast
6:15 AM 24.8 °F - 19.4 °F 80% 29.69 in 10.0 mi Calm Calm - N/A   Overcast
6:35 AM 24.8 °F 16.9 °F 21.2 °F 86% 29.70 in 10.0 mi NNW 6.9 mph - N/A   Overcast
6:55 AM 26.6 °F 16.2 °F 24.8 °F 93% 29.70 in 10.0 mi NW 11.5 mph - N/A   Overcast
7:15 AM 26.6 °F 15.7 °F 24.8 °F 93% 29.71 in 10.0 mi NW 12.7 mph - N/A   Overcast
7:35 AM 24.8 °F 12.9 °F 21.2 °F 86% 29.71 in 10.0 mi NW 13.8 mph - N/A   Mostly Cloudy
7:55 AM 24.8 °F 12.9 °F 21.2 °F 86% 29.72 in 8.0 mi NW 13.8 mph - N/A   Scattered Clouds
8:15 AM 24.8 °F 14.6 °F 21.2 °F 86% 29.73 in 7.0 mi NW 10.4 mph - N/A   Scattered Clouds
8:35 AM 24.8 °F 14.6 °F 21.2 °F 86% 29.73 in 5.0 mi NW 10.4 mph - N/A   Partly Cloudy
8:55 AM 26.6 °F 15.7 °F 23.0 °F 86% 29.72 in 7.0 mi NNW 12.7 mph - N/A   Partly Cloudy
9:15 AM 24.8 °F 17.9 °F 23.0 °F 93% 29.73 in 7.0 mi NNW 5.8 mph - N/A   Mostly Cloudy
9:35 AM 26.6 °F 18.2 °F 23.0 °F 86% 29.73 in 5.0 mi NNW 8.1 mph - N/A   Overcast
9:55 AM 26.6 °F 19.1 °F 24.8 °F 93% 29.74 in 2.0 mi NW 6.9 mph - N/A   Overcast
10:15 AM 26.6 °F 21.2 °F 24.8 °F 93% 29.75 in 1.8 mi NNW 4.6 mph - N/A   Overcast
10:35 AM 28.4 °F 19.7 °F 26.6 °F 93% 29.74 in 1.0 mi NNW 9.2 mph - N/A   Overcast
10:55 AM 28.4 °F 19.7 °F 28.4 °F 100% 29.75 in 3.0 mi NW 9.2 mph - N/A   Overcast
11:15 AM 30.2 °F 23.4 °F 28.4 °F 93% 29.75 in 5.0 mi WNW 6.9 mph - N/A   Overcast
11:35 AM 30.2 °F 20.8 °F 28.4 °F 93% 29.74 in 7.0 mi NW 11.5 mph - N/A   Overcast
11:55 AM 32.0 °F 23.0 °F 28.4 °F 87% 29.74 in 8.0 mi NW 11.5 mph - N/A   Overcast
12:15 PM 32.0 °F 23.6 °F 28.4 °F 87% 29.74 in 10.0 mi West 10.4 mph - N/A   Overcast
12:35 PM 32.0 °F 23.0 °F 28.4 °F 87% 29.73 in 10.0 mi WNW 11.5 mph - N/A   Overcast
1:15 PM 33.8 °F 24.8 °F 30.2 °F 87% 29.73 in 10.0 mi NW 12.7 mph - N/A   Overcast
1:35 PM 33.8 °F 23.9 °F 28.4 °F 81% 29.72 in 10.0 mi NW 15.0 mph 19.6 mph N/A   Overcast
1:55 PM 33.8 °F 23.9 °F 28.4 °F 81% 29.71 in 10.0 mi NW 15.0 mph 21.9 mph N/A   Overcast
2:15 PM 33.8 °F 23.2 °F 30.2 °F 87% 29.72 in 10.0 mi NW 17.3 mph 20.7 mph N/A   Overcast
2:35 PM 35.6 °F 26.2 °F 28.4 °F 75% 29.72 in 10.0 mi NW 15.0 mph 20.7 mph N/A   Overcast
2:55 PM 35.6 °F 25.9 °F 28.4 °F 75% 29.71 in 10.0 mi NW 16.1 mph - N/A   Overcast
4:15 PM 33.8 °F 25.3 °F 28.4 °F 81% 29.73 in 10.0 mi NNW 11.5 mph 19.6 mph N/A   Overcast
4:35 PM 33.8 °F 25.8 °F 28.4 °F 81% 29.74 in 10.0 mi NNW 10.4 mph - N/A   Overcast
4:55 PM 33.8 °F 27.0 °F 28.4 °F 81% 29.74 in 10.0 mi NNW 8.1 mph - N/A   Overcast
5:15 PM 33.8 °F 27.0 °F 28.4 °F 81% 29.75 in 10.0 mi NW 8.1 mph - N/A   Overcast
5:35 PM 33.8 °F 26.4 °F 28.4 °F 81% 29.76 in 10.0 mi NNW 9.2 mph - N/A   Overcast
5:55 PM 33.8 °F 28.6 °F 28.4 °F 81% 29.77 in 10.0 mi NNW 5.8 mph - N/A   Overcast
6:15 PM 33.8 °F 27.7 °F 28.4 °F 81% 29.77 in 2.5 mi NW 6.9 mph - N/A   Overcast
6:35 PM 32.0 °F 25.6 °F 28.4 °F 87% 29.77 in 0.8 mi NNW 6.9 mph - N/A   Overcast
6:55 PM 30.2 °F - 28.4 °F 93% 29.77 in 1.0 mi Calm Calm - N/A   Overcast
7:15 PM 30.2 °F - 30.2 °F 100% 29.76 in 2.5 mi Calm Calm - N/A   Mostly Cloudy
7:35 PM 30.2 °F 23.4 °F 28.4 °F 93% 29.77 in 0.8 mi South 6.9 mph - N/A   Overcast
7:55 PM 30.2 °F 25.4 °F 28.4 °F 93% 29.78 in 0.5 mi SSW 4.6 mph - N/A   Overcast
8:15 PM 30.2 °F - 28.4 °F 93% 29.78 in 5.0 mi Calm Calm - N/A   Scattered Clouds
8:35 PM 30.2 °F 24.3 °F 28.4 °F 93% 29.78 in 10.0 mi SSW 5.8 mph - N/A   Partly Cloudy
8:55 PM 30.2 °F 23.4 °F 28.4 °F 93% 29.78 in 10.0 mi SW 6.9 mph - N/A   Mostly Cloudy
9:15 PM 30.2 °F 23.4 °F 28.4 °F 93% 29.77 in 10.0 mi SW 6.9 mph - N/A   Mostly Cloudy
9:55 PM 30.2 °F 24.3 °F 28.4 °F 93% 29.76 in 10.0 mi South 5.8 mph - N/A   Mostly Cloudy
10:15 PM 28.4 °F 23.3 °F 26.6 °F 93% 29.76 in 10.0 mi SW 4.6 mph - N/A   Overcast
10:35 PM 28.4 °F 21.2 °F 26.6 °F 93% 29.75 in 10.0 mi WNW 6.9 mph - N/A   Overcast
10:55 PM 28.4 °F 21.2 °F 26.6 °F 93% 29.77 in 10.0 mi WSW 6.9 mph - N/A   Overcast
11:15 PM 28.4 °F 22.2 °F 26.6 °F 93% 29.79 in 10.0 mi WSW 5.8 mph - N/A   Overcast
11:55 PM 30.2 °F 23.4 °F 26.6 °F 86% 29.79 in 10.0 mi West 6.9 mph - N/A   Mostly Cloudy